SPROUT
1 39770U 14029E 24032.83273222 .00040879 00000-0 19594-2 0 9990
2 39770 98.0024 174.7327 0006429 272.8022 87.2475 15.18775069526797
DTUSAT-2
1 40030U 14033W 24032.34213962 .00006347 00000-0 57058-3 0 9997
2 40030 97.9939 341.5701 0008144 247.0888 112.9473 14.96010787522223
EO-80
1 40032U 14033Y 24032.58256202 .00005943 00000-0 53413-3 0 9991
2 40032 97.9919 341.8296 0008681 247.8607 112.1692 14.96047726522754
HODOYOSHI-1
1 40299U 14070B 24032.79312179 .00016872 00000-0 40915-3 0 9992
2 40299 97.1620 95.1402 0009092 162.3897 197.7667 15.41079756514073
GRIFEX
1 40379U 15003D 24032.75041348 .00362954 51095-4 12564-2 0 9998
2 40379 99.0807 36.6452 0029655 172.1963 187.9771 15.88698641499097
XW-2C
1 40906U 15049H 24032.83928952 .00019495 00000-0 58428-3 0 9993
2 40906 97.4896 46.9162 0011987 73.5878 286.6681 15.34467164463513
XW-2D
1 40907U 15049J 24032.82678190 .00026099 00000-0 68558-3 0 9992
2 40907 97.4857 48.3477 0010644 66.7211 293.5153 15.38538571463662
LILACSAT-2
1 40908U 15049K 24032.82779334 .00007800 00000-0 33032-3 0 9993
2 40908 97.5285 40.8436 0014930 106.2405 254.0476 15.23348425462714
XW-2E
1 40909U 15049L 24032.86671881 .00147519 00000-0 12608-2 0 9993
2 40909 97.4292 59.1653 0004558 38.5396 321.6191 15.69009896464710
XW-2F
1 40910U 15049M 24032.86886309 .00137479 00000-0 12564-2 0 9993
2 40910 97.4398 58.3953 0005274 38.6100 321.5537 15.67386283464431
XW-2B
1 40911U 15049N 24032.80294162 .00026077 00000-0 69447-3 0 9992
2 40911 97.4833 48.5847 0010696 67.8795 292.3584 15.38114231463534
IO-86
1 40931U 15052B 24006.28856983 .00001263 00000-0 84248-4 0 9993
2 40931 6.0004 76.3799 0013541 291.8204 68.0484 14.77555377447321
ChubuSat-2
1 41338U 16012B 24032.60359219 .00005162 00000-0 33550-3 0 9998
2 41338 31.0005 188.5709 0011791 309.1387 50.8202 15.06404116436972
ChubuSat-3
1 41339U 16012C 24032.83500333 .00004702 00000-0 30820-3 0 9995
2 41339 31.0070 184.8649 0011818 317.7382 42.2344 15.06031035436997
Horyu-4
1 41340U 16012D 24032.57088740 .00009878 00000-0 54737-3 0 9993
2 41340 31.0025 143.1816 0010763 31.1139 329.0136 15.12472543437422
e-st@r-II
1 41459U 16025D 24032.72074703 .00090505 00000-0 12240-2 0 9998
2 41459 98.1502 265.6278 0064094 9.4258 350.8180 15.54964716428228
Lapan A3
1 41603U 16040E 24032.85723678 .00003686 00000-0 15471-3 0 9996
2 41603 97.1519 52.8054 0011027 217.9072 142.1391 15.24013462422457
Pratham
1 41783U 16059A 24032.02200876 .00000960 00000-0 18842-3 0 9991
2 41783 97.8491 57.7542 0034141 95.5777 264.9322 14.64477938392461
CAS-2T
1 41847U 16066G 24032.58375973 .00002126 00000-0 32229-3 0 9993
2 41847 98.4768 104.8673 0355616 228.3697 128.6529 14.40624311379828
CAS-4B
1 42759U 17034B 24032.79463923 .00011919 00000-0 50486-3 0 9993
2 42759 43.0123 274.2739 0011050 169.0948 191.0144 15.23080314366574
CAS-4A
1 42761U 17034D 24032.80616130 .00012119 00000-0 51182-3 0 9995
2 42761 43.0132 272.6647 0011565 172.3832 187.7196 15.23163826366587
NIUSat
1 42766U 17036B 24032.05997181 .00088196 00000-0 95374-3 0 9996
2 42766 97.1249 65.8770 0004612 5.4264 354.7044 15.63305003368039
Aalto 1
1 42775U 17036L 24032.57991714 .00036050 00000-0 67003-3 0 9999
2 42775 97.1269 62.5341 0007163 9.4204 350.7181 15.48793006367855
URSA MAIOR
1 42776U 17036M 24032.81272422 .00053634 00000-0 81561-3 0 9997
2 42776 97.1262 65.2027 0005533 0.3075 359.8182 15.54362625368033
Max Valier Sat
1 42778U 17036P 24032.08734745 .00046808 00000-0 67881-3 0 9993
2 42778 97.1272 68.4851 0004969 5.4350 354.6959 15.55697634368093
D-SAT
1 42794U 17036AF 24032.47911390 .00004640 00000-0 34722-3 0 9993
2 42794 97.4834 19.5210 0109851 249.1296 109.8138 14.98480579360237
TechnoSat
1 42829U 17042E 24032.52592151 .00003800 00000-0 34943-3 0 9997
2 42829 97.3795 221.3960 0012931 168.4063 191.7459 14.95265533356748
AO-91
1 43017U 17073E 24032.15196395 .00008842 00000-0 57560-3 0 9991
2 43017 97.5995 272.6294 0221329 31.0422 330.3659 14.90170522335230
AO-92
1 43137U 18004AC 24032.10758869 .02851561 23693-5 11448-2 0 9992
2 43137 97.2771 124.3413 0008137 296.5237 63.5219 16.23517918338074
TianYi 2
1 43155U 18008A 24032.84039634 .00036914 00000-0 93514-3 0 9991
2 43155 97.2635 86.3682 0008742 203.6798 156.4047 15.39597090333803
Zhou Enlai
1 43156U 18008B 24032.83848081 .00045753 00000-0 10542-2 0 9995
2 43156 97.2677 87.1024 0006711 203.4304 156.6639 15.42439281333769
TianYi 6
1 43158U 18008D 24032.55806215 .00027990 00000-0 84670-3 0 9996
2 43158 97.2752 82.1232 0007512 212.1062 147.9725 15.34140004333446
S-Net D
1 43186U 18014G 24032.29778710 .00003683 00000-0 27983-3 0 9990
2 43186 97.6004 296.6461 0012039 106.1580 254.0972 15.02723664327939
S-Net B
1 43187U 18014H 24032.29949472 .00003526 00000-0 26806-3 0 9995
2 43187 97.6013 296.5873 0013141 102.1352 258.1346 15.02720513327934
S-Net A
1 43188U 18014J 24032.29903091 .00003588 00000-0 27262-3 0 9998
2 43188 97.6017 296.6891 0012924 102.7841 257.4830 15.02725921327935
S-Net C
1 43189U 18014K 24032.30183916 .00003422 00000-0 26005-3 0 9998
2 43189 97.6042 296.6117 0015156 96.6418 263.6533 15.02725837326480
CubeBel-1
1 43666U 18083E 24032.65054353 .00242996 00000-0 15535-2 0 9990
2 43666 97.3426 74.5616 0003496 10.8793 349.2547 15.75636907292766
Changshagaoxin
1 43669U 18083H 24032.81562129 .00082131 00000-0 11382-2 0 9995
2 43669 97.3524 66.8124 0004621 39.4165 320.7426 15.56789076292368
Ten-Koh
1 43677U 18084G 24032.36801486 .00003761 00000-0 35123-3 0 9999
2 43677 98.0408 182.1939 0015739 108.5272 251.7659 14.94723025286278
PO-101
1 43678U 18084H 24032.85982904 .00001737 00000-0 16641-3 0 9994
2 43678 98.0504 187.0973 0010348 117.9297 242.2972 14.94496637286550
QO-100
1 43700U 18090A 24032.55188189 .00000162 00000-0 00000-0 0 9997
2 43700 0.0167 92.0275 0001041 231.4580 32.2588 1.00276160 18981
MinXSS-2
1 43758U 18099A 24032.14196920 .00007612 00000-0 52948-3 0 9994
2 43758 97.5732 96.8413 0019105 67.8756 292.4496 15.05621806282145
AO-95
1 43770U 18099N 24032.15629073 .00006231 00000-0 46382-3 0 9990
2 43770 97.5684 93.0691 0016723 106.4501 253.8564 15.03181531281963
RANGE-B
1 43772U 18099Q 24032.15875851 .00008915 00000-0 61435-3 0 9996
2 43772 97.5448 96.2168 0006421 34.3656 325.7986 15.06053406282073
RANGE-A
1 43773U 18099R 24032.08719597 .00004321 00000-0 34483-3 0 9993
2 43773 97.5270 89.7216 0019326 76.8770 283.4610 15.00654389281865
MOVE-II
1 43780U 18099Y 24032.63220066 .00013321 00000-0 81910-3 0 9997
2 43780 97.5417 97.3875 0008983 89.0730 271.1528 15.10135372282287
SNUSat 2
1 43782U 18099AA 24032.63877821 .00005880 00000-0 44479-3 0 9996
2 43782 97.5362 93.3969 0016130 49.9530 310.3107 15.02598420282056
SnugLite
1 43784U 18099AC 24032.15093289 .00006241 00000-0 46201-3 0 9990
2 43784 97.5176 92.3776 0006790 68.8318 291.3633 15.03478027282032
ITASat 1
1 43786U 18099AE 24032.39337149 .00005023 00000-0 38535-3 0 9992
2 43786 97.5270 93.6061 0018646 93.7681 266.5677 15.02100080282024
